Time,TemperatureF,DewpointF,PressureIn,WindDirection,WindDirectionDegrees,WindSpeedMPH,WindSpeedGustMPH,Humidity,HourlyPrecipIn,Conditions,Clouds,dailyrainin,SoftwareType,DateUTC
2013-04-25 00:02:00,67.4,66.2,30.02,SW,226,3.0,6.0,96,0.00,,,0.00,Wunderground v.1.15,2013-04-25 04:02:00,
2013-04-25 00:04:00,67.4,66.2,30.02,South,181,3.0,6.0,96,0.00,,,0.00,Wunderground v.1.15,2013-04-25 04:04:00,
2013-04-25 00:06:00,67.4,66.2,30.02,SW,216,3.0,6.0,96,0.00,,,0.00,Wunderground v.1.15,2013-04-25 04:06:00,
2013-04-25 00:12:00,67.3,66.1,30.02,WSW,250,4.0,6.0,96,0.00,,,0.00,Wunderground v.1.15,2013-04-25 04:12:00,
2013-04-25 00:14:00,67.3,66.1,30.01,SSW,200,3.0,6.0,96,0.00,,,0.00,Wunderground v.1.15,2013-04-25 04:14:00,
2013-04-25 00:20:00,67.1,66.2,30.01,SSW,206,3.0,5.0,97,0.00,,,0.00,Wunderground v.1.15,2013-04-25 04:20:00,
2013-04-25 00:26:00,67.1,66.2,30.01,SW,226,3.0,7.0,97,0.00,,,0.00,Wunderground v.1.15,2013-04-25 04:26:00,
2013-04-25 00:32:00,67.1,66.2,30.02,SW,223,3.0,4.0,97,0.00,,,0.00,Wunderground v.1.15,2013-04-25 04:32:00,
2013-04-25 00:38:00,67.1,66.2,30.02,SSW,205,3.0,4.0,97,0.00,,,0.00,Wunderground v.1.15,2013-04-25 04:38:00,
2013-04-25 00:44:00,67.1,66.2,30.02,SW,230,3.0,3.0,97,0.00,,,0.00,Wunderground v.1.15,2013-04-25 04:44:00,
2013-04-25 00:50:00,67.1,66.2,30.02,SW,215,3.0,3.0,97,0.00,,,0.00,Wunderground v.1.15,2013-04-25 04:50:00,
2013-04-25 00:56:00,67.1,66.2,30.02,SW,224,3.0,4.0,97,0.00,,,0.00,Wunderground v.1.15,2013-04-25 04:56:00,
2013-04-25 01:02:00,67.1,66.2,30.01,SW,220,3.0,3.0,97,0.00,,,0.00,Wunderground v.1.15,2013-04-25 05:02:00,
2013-04-25 01:08:00,66.9,66.0,30.01,West,268,3.0,6.0,97,0.00,,,0.00,Wunderground v.1.15,2013-04-25 05:08:00,
2013-04-25 01:14:00,66.9,66.3,30.00,ESE,114,4.0,11.0,98,0.00,,,0.00,Wunderground v.1.15,2013-04-25 05:14:00,
2013-04-25 01:20:00,66.8,66.5,30.00,SW,227,4.0,4.0,99,0.00,,,0.00,Wunderground v.1.15,2013-04-25 05:20:00,
2013-04-25 01:26:00,66.6,66.3,30.00,WSW,239,2.0,4.0,99,0.00,,,0.00,Wunderground v.1.15,2013-04-25 05:26:00,
2013-04-25 01:32:00,66.8,66.5,30.01,WSW,253,3.0,10.0,99,0.00,,,0.00,Wunderground v.1.15,2013-04-25 05:32:00,
2013-04-25 01:38:00,66.6,66.3,30.01,SSW,196,4.0,10.0,99,0.00,,,0.00,Wunderground v.1.15,2013-04-25 05:38:00,
2013-04-25 01:44:00,66.6,66.3,30.01,SW,223,4.0,9.0,99,0.00,,,0.00,Wunderground v.1.15,2013-04-25 05:44:00,
2013-04-25 01:50:00,66.6,66.3,30.01,SSW,210,5.0,6.0,99,0.00,,,0.00,Wunderground v.1.15,2013-04-25 05:50:00,
2013-04-25 01:56:00,66.6,66.3,30.01,SW,236,4.0,7.0,99,0.00,,,0.00,Wunderground v.1.15,2013-04-25 05:56:00,
2013-04-25 02:02:00,66.6,66.3,30.00,WSW,244,4.0,8.0,99,0.00,,,0.00,Wunderground v.1.15,2013-04-25 06:02:00,
2013-04-25 02:08:00,66.6,66.3,30.00,WSW,256,4.0,8.0,99,0.00,,,0.00,Wunderground v.1.15,2013-04-25 06:08:00,
2013-04-25 02:14:00,66.8,66.5,30.00,SW,220,4.0,9.0,99,0.00,,,0.00,Wunderground v.1.15,2013-04-25 06:14:00,
2013-04-25 02:20:00,66.8,66.2,30.00,SW,224,5.0,5.0,98,0.00,,,0.00,Wunderground v.1.15,2013-04-25 06:20:00,
2013-04-25 02:26:00,66.8,66.2,30.00,SW,229,5.0,6.0,98,0.00,,,0.00,Wunderground v.1.15,2013-04-25 06:26:00,
2013-04-25 02:32:00,66.8,66.2,30.00,SW,232,5.0,7.0,98,0.00,,,0.00,Wunderground v.1.15,2013-04-25 06:32:00,
2013-04-25 02:38:00,66.9,66.3,30.00,SSW,208,5.0,11.0,98,0.00,,,0.00,Wunderground v.1.15,2013-04-25 06:38:00,
2013-04-25 02:44:00,66.9,66.3,30.00,WSW,250,5.0,9.0,98,0.00,,,0.00,Wunderground v.1.15,2013-04-25 06:44:00,
2013-04-25 02:50:00,66.9,66.3,30.00,SW,229,5.0,5.0,98,0.00,,,0.00,Wunderground v.1.15,2013-04-25 06:50:00,
2013-04-25 02:56:00,66.8,66.2,30.00,WSW,243,5.0,8.0,98,0.00,,,0.00,Wunderground v.1.15,2013-04-25 06:56:00,
2013-04-25 03:02:00,66.8,66.2,30.00,SW,230,4.0,5.0,98,0.00,,,0.00,Wunderground v.1.15,2013-04-25 07:02:00,
2013-04-25 03:08:00,66.8,66.2,30.00,SW,220,4.0,5.0,98,0.00,,,0.00,Wunderground v.1.15,2013-04-25 07:08:00,
2013-04-25 03:14:00,66.9,66.3,30.00,WSW,248,5.0,6.0,98,0.00,,,0.00,Wunderground v.1.15,2013-04-25 07:14:00,
2013-04-25 03:20:00,66.8,66.2,30.00,WSW,237,5.0,6.0,98,0.00,,,0.00,Wunderground v.1.15,2013-04-25 07:20:00,
2013-04-25 03:26:00,66.8,66.5,30.00,WSW,253,5.0,6.0,99,0.00,,,0.00,Wunderground v.1.15,2013-04-25 07:26:00,
2013-04-25 03:32:00,66.8,66.5,30.00,West,263,4.0,4.0,99,0.00,,,0.00,Wunderground v.1.15,2013-04-25 07:32:00,
2013-04-25 03:38:00,66.8,66.5,30.00,WSW,247,3.0,7.0,99,0.00,,,0.00,Wunderground v.1.15,2013-04-25 07:38:00,
2013-04-25 03:44:00,66.6,66.3,30.00,WSW,251,3.0,3.0,99,0.00,,,0.00,Wunderground v.1.15,2013-04-25 07:44:00,
2013-04-25 03:50:00,66.6,66.3,30.00,WSW,254,3.0,4.0,99,0.00,,,0.00,Wunderground v.1.15,2013-04-25 07:50:00,
2013-04-25 03:56:00,66.8,66.5,30.00,SW,232,3.0,6.0,99,0.00,,,0.00,Wunderground v.1.15,2013-04-25 07:56:00,
2013-04-25 04:02:00,66.8,66.8,30.00,WSW,247,3.0,8.0,100,0.00,,,0.00,Wunderground v.1.15,2013-04-25 08:02:00,
2013-04-25 04:08:00,66.8,66.8,30.00,WSW,257,3.0,8.0,100,0.00,,,0.00,Wunderground v.1.15,2013-04-25 08:08:00,
2013-04-25 04:14:00,66.9,66.9,30.00,WSW,257,4.0,6.0,100,0.00,,,0.00,Wunderground v.1.15,2013-04-25 08:14:00,
2013-04-25 04:20:00,66.9,66.9,30.00,WSW,240,4.0,6.0,100,0.00,,,0.00,Wunderground v.1.15,2013-04-25 08:20:00,
2013-04-25 04:26:00,66.9,66.9,30.00,WSW,248,4.0,11.0,100,0.00,,,0.00,Wunderground v.1.15,2013-04-25 08:26:00,
2013-04-25 04:32:00,67.1,66.8,30.00,WSW,241,3.0,4.0,99,0.00,,,0.00,Wunderground v.1.15,2013-04-25 08:32:00,
2013-04-25 04:38:00,67.1,66.8,30.00,WSW,253,3.0,6.0,99,0.00,,,0.00,Wunderground v.1.15,2013-04-25 08:38:00,
2013-04-25 04:44:00,67.3,67.0,30.00,West,260,4.0,5.0,99,0.00,,,0.00,Wunderground v.1.15,2013-04-25 08:44:00,
2013-04-25 04:50:00,67.4,66.8,30.00,West,263,4.0,4.0,98,0.00,,,0.00,Wunderground v.1.15,2013-04-25 08:50:00,
2013-04-25 04:56:00,67.6,66.7,30.00,WSW,246,4.0,6.0,97,0.00,,,0.00,Wunderground v.1.15,2013-04-25 08:56:00,
2013-04-25 05:02:00,67.9,66.7,30.01,West,280,5.0,8.0,96,0.00,,,0.00,Wunderground v.1.15,2013-04-25 09:02:00,
2013-04-25 05:08:00,68.3,66.8,30.01,WNW,291,4.0,11.0,95,0.00,,,0.00,Wunderground v.1.15,2013-04-25 09:08:00,
2013-04-25 05:14:00,68.3,66.5,30.01,West,265,4.0,6.0,94,0.00,,,0.00,Wunderground v.1.15,2013-04-25 09:14:00,
2013-04-25 05:20:00,68.4,66.6,30.01,SSW,212,4.0,5.0,94,0.00,,,0.00,Wunderground v.1.15,2013-04-25 09:20:00,
2013-04-25 05:26:00,68.4,66.6,30.01,SW,224,4.0,8.0,94,0.00,,,0.00,Wunderground v.1.15,2013-04-25 09:26:00,
2013-04-25 05:32:00,68.4,66.3,30.01,WSW,253,4.0,6.0,93,0.00,,,0.00,Wunderground v.1.15,2013-04-25 09:32:00,
2013-04-25 05:38:00,68.4,66.6,30.01,West,265,3.0,6.0,94,0.00,,,0.00,Wunderground v.1.15,2013-04-25 09:38:00,
2013-04-25 05:44:00,68.4,66.6,30.02,WSW,239,3.0,3.0,94,0.00,,,0.00,Wunderground v.1.15,2013-04-25 09:44:00,
2013-04-25 05:50:00,68.4,66.6,30.02,WNW,284,3.0,6.0,94,0.00,,,0.00,Wunderground v.1.15,2013-04-25 09:50:00,
2013-04-25 05:56:00,68.4,66.3,30.02,WNW,284,3.0,8.0,93,0.00,,,0.00,Wunderground v.1.15,2013-04-25 09:56:00,
2013-04-25 06:02:00,68.3,66.5,30.02,WSW,241,3.0,6.0,94,0.00,,,0.00,Wunderground v.1.15,2013-04-25 10:02:00,
2013-04-25 06:08:00,68.3,66.5,30.02,SW,230,3.0,6.0,94,0.00,,,0.00,Wunderground v.1.15,2013-04-25 10:08:00,
2013-04-25 06:14:00,68.1,66.3,30.02,West,267,3.0,3.0,94,0.00,,,0.00,Wunderground v.1.15,2013-04-25 10:14:00,
2013-04-25 06:20:00,68.1,66.6,30.02,WSW,256,2.0,2.0,95,0.00,,,0.00,Wunderground v.1.15,2013-04-25 10:20:00,
2013-04-25 06:26:00,67.9,66.4,30.02,WSW,247,2.0,5.0,95,0.00,,,0.00,Wunderground v.1.15,2013-04-25 10:26:00,
2013-04-25 06:32:00,67.9,66.4,30.03,WSW,237,3.0,3.0,95,0.00,,,0.00,Wunderground v.1.15,2013-04-25 10:32:00,
2013-04-25 06:38:00,67.9,66.4,30.03,WSW,237,3.0,3.0,95,0.00,,,0.00,Wunderground v.1.15,2013-04-25 10:38:00,
2013-04-25 06:44:00,67.9,66.4,30.03,SW,227,3.0,7.0,95,0.00,,,0.00,Wunderground v.1.15,2013-04-25 10:44:00,
2013-04-25 06:50:00,67.8,66.3,30.03,SW,230,3.0,3.0,95,0.00,,,0.00,Wunderground v.1.15,2013-04-25 10:50:00,
2013-04-25 06:56:00,67.8,66.6,30.03,SW,236,3.0,3.0,96,0.00,,,0.00,Wunderground v.1.15,2013-04-25 10:56:00,
2013-04-25 07:02:00,67.6,66.4,30.04,SW,229,3.0,3.0,96,0.00,,,0.00,Wunderground v.1.15,2013-04-25 11:02:00,
2013-04-25 07:08:00,67.4,66.5,30.04,SW,233,2.0,3.0,97,0.00,,,0.00,Wunderground v.1.15,2013-04-25 11:08:00,
2013-04-25 07:14:00,67.3,66.4,30.05,WSW,243,2.0,3.0,97,0.00,,,0.00,Wunderground v.1.15,2013-04-25 11:14:00,
2013-04-25 07:20:00,67.1,66.2,30.05,SW,224,3.0,3.0,97,0.00,,,0.00,Wunderground v.1.15,2013-04-25 11:20:00,
2013-04-25 07:26:00,67.1,66.5,30.05,WSW,253,2.0,3.0,98,0.00,,,0.00,Wunderground v.1.15,2013-04-25 11:26:00,
2013-04-25 07:32:00,67.1,66.5,30.05,WSW,258,1.0,1.0,98,0.00,,,0.00,Wunderground v.1.15,2013-04-25 11:32:00,
2013-04-25 07:38:00,67.3,66.4,30.05,West,272,1.0,3.0,97,0.00,,,0.00,Wunderground v.1.15,2013-04-25 11:38:00,
2013-04-25 07:44:00,67.4,66.5,30.06,WSW,253,2.0,3.0,97,0.00,,,0.00,Wunderground v.1.15,2013-04-25 11:44:00,
2013-04-25 07:50:00,67.8,66.6,30.06,WSW,256,2.0,3.0,96,0.00,,,0.00,Wunderground v.1.15,2013-04-25 11:50:00,
2013-04-25 07:56:00,67.8,66.3,30.06,SW,236,3.0,4.0,95,0.00,,,0.00,Wunderground v.1.15,2013-04-25 11:56:00,
2013-04-25 08:02:00,68.1,66.6,30.06,WSW,254,3.0,7.0,95,0.00,,,0.00,Wunderground v.1.15,2013-04-25 12:02:00,
2013-04-25 08:08:00,68.4,66.3,30.06,WSW,237,4.0,7.0,93,0.00,,,0.00,Wunderground v.1.15,2013-04-25 12:08:00,
2013-04-25 08:14:00,68.6,66.5,30.06,SW,230,3.0,4.0,93,0.00,,,0.00,Wunderground v.1.15,2013-04-25 12:14:00,
2013-04-25 08:20:00,68.8,66.4,30.06,WSW,240,3.0,4.0,92,0.00,,,0.00,Wunderground v.1.15,2013-04-25 12:20:00,
2013-04-25 08:26:00,69.1,66.4,30.06,WSW,254,3.0,8.0,91,0.00,,,0.00,Wunderground v.1.15,2013-04-25 12:26:00,
2013-04-25 08:32:00,69.4,66.3,30.07,West,267,4.0,6.0,90,0.00,,,0.00,Wunderground v.1.15,2013-04-25 12:32:00,
2013-04-25 08:38:00,69.8,66.7,30.07,WNW,299,5.0,6.0,90,0.00,,,0.00,Wunderground v.1.15,2013-04-25 12:38:00,
2013-04-25 08:44:00,69.8,66.4,30.07,NW,320,6.0,10.0,89,0.00,,,0.00,Wunderground v.1.15,2013-04-25 12:44:00,
2013-04-25 08:50:00,69.8,66.7,30.07,WNW,302,5.0,6.0,90,0.00,,,0.00,Wunderground v.1.15,2013-04-25 12:50:00,
2013-04-25 08:56:00,69.8,66.7,30.07,WNW,284,4.0,9.0,90,0.00,,,0.00,Wunderground v.1.15,2013-04-25 12:56:00,
2013-04-25 09:02:00,69.9,66.8,30.08,WNW,289,6.0,10.0,90,0.00,,,0.00,Wunderground v.1.15,2013-04-25 13:02:00,
2013-04-25 09:08:00,69.4,66.3,30.08,WNW,287,9.0,12.0,90,0.00,,,0.00,Wunderground v.1.15,2013-04-25 13:08:00,
2013-04-25 09:14:00,69.8,66.7,30.08,WNW,282,8.0,10.0,90,0.00,,,0.00,Wunderground v.1.15,2013-04-25 13:14:00,
2013-04-25 09:20:00,70.8,67.1,30.08,NW,308,6.0,6.0,88,0.00,,,0.00,Wunderground v.1.15,2013-04-25 13:20:00,
2013-04-25 09:26:00,71.1,67.0,30.08,NW,308,10.0,13.0,87,0.00,,,0.00,Wunderground v.1.15,2013-04-25 13:26:00,
2013-04-25 09:32:00,70.3,66.9,30.08,WNW,289,12.0,12.0,89,0.00,,,0.00,Wunderground v.1.15,2013-04-25 13:32:00,
2013-04-25 09:38:00,70.6,66.9,30.08,WNW,302,11.0,12.0,88,0.00,,,0.00,Wunderground v.1.15,2013-04-25 13:38:00,
2013-04-25 09:44:00,70.6,67.2,30.08,NW,305,9.0,10.0,89,0.00,,,0.00,Wunderground v.1.15,2013-04-25 13:44:00,
2013-04-25 09:50:00,69.6,67.2,30.08,NW,311,9.0,9.0,92,0.00,,,0.00,Wunderground v.1.15,2013-04-25 13:50:00,
2013-04-25 09:56:00,69.8,67.4,30.08,NW,311,8.0,10.0,92,0.00,,,0.00,Wunderground v.1.15,2013-04-25 13:56:00,
2013-04-25 10:02:00,70.3,67.2,30.08,NW,313,8.0,8.0,90,0.00,,,0.00,Wunderground v.1.15,2013-04-25 14:02:00,
2013-04-25 10:08:00,70.8,67.7,30.08,NW,311,7.0,8.0,90,0.00,,,0.00,Wunderground v.1.15,2013-04-25 14:08:00,
2013-04-25 10:14:00,70.9,67.8,30.08,NW,315,4.0,6.0,90,0.00,,,0.00,Wunderground v.1.15,2013-04-25 14:14:00,
2013-04-25 10:20:00,71.1,68.0,30.08,NW,319,3.0,5.0,90,0.00,,,0.00,Wunderground v.1.15,2013-04-25 14:20:00,
2013-04-25 10:26:00,71.1,68.0,30.08,NW,308,5.0,7.0,90,0.00,,,0.00,Wunderground v.1.15,2013-04-25 14:26:00,
2013-04-25 10:32:00,71.3,67.9,30.08,WNW,302,6.0,6.0,89,0.00,,,0.00,Wunderground v.1.15,2013-04-25 14:32:00,
2013-04-25 10:38:00,71.6,67.9,30.08,NW,304,4.0,6.0,88,0.00,,,0.00,Wunderground v.1.15,2013-04-25 14:38:00,
2013-04-25 10:44:00,72.1,68.0,30.07,NW,312,4.0,6.0,87,0.00,,,0.00,Wunderground v.1.15,2013-04-25 14:44:00,
2013-04-25 10:50:00,72.8,68.4,30.07,NW,315,4.0,4.0,86,0.00,,,0.00,Wunderground v.1.15,2013-04-25 14:50:00,
2013-04-25 10:56:00,73.2,68.8,30.07,NW,319,3.0,5.0,86,0.00,,,0.00,Wunderground v.1.15,2013-04-25 14:56:00,
2013-04-25 11:02:00,73.7,68.6,30.08,NW,313,4.0,4.0,84,0.00,,,0.00,Wunderground v.1.15,2013-04-25 15:02:00,
2013-04-25 11:08:00,74.0,67.8,30.08,NW,312,3.0,4.0,81,0.00,,,0.00,Wunderground v.1.15,2013-04-25 15:08:00,
2013-04-25 11:14:00,74.7,67.8,30.07,NW,318,2.0,3.0,79,0.00,,,0.00,Wunderground v.1.15,2013-04-25 15:14:00,
2013-04-25 11:20:00,75.3,68.3,30.07,NW,323,2.0,2.0,79,0.00,,,0.00,Wunderground v.1.15,2013-04-25 15:20:00,
2013-04-25 11:26:00,75.1,68.5,30.07,NW,312,3.0,3.0,80,0.00,,,0.00,Wunderground v.1.15,2013-04-25 15:26:00,
2013-04-25 11:32:00,74.7,68.5,30.07,NNW,343,3.0,3.0,81,0.00,,,0.00,Wunderground v.1.15,2013-04-25 15:32:00,
2013-04-25 11:38:00,74.7,67.8,30.07,North,359,2.0,3.0,79,0.00,,,0.00,Wunderground v.1.15,2013-04-25 15:38:00,
2013-04-25 11:44:00,75.4,66.9,30.07,North,359,2.0,2.0,75,0.00,,,0.00,Wunderground v.1.15,2013-04-25 15:44:00,
2013-04-25 11:50:00,76.8,67.9,30.07,North,354,1.0,1.0,74,0.00,,,0.00,Wunderground v.1.15,2013-04-25 15:50:00,
2013-04-25 11:56:00,77.9,67.7,30.07,North,354,1.0,1.0,71,0.00,,,0.00,Wunderground v.1.15,2013-04-25 15:56:00,
2013-04-25 12:02:00,78.3,67.7,30.07,North,353,0.0,0.0,70,0.00,,,0.00,Wunderground v.1.15,2013-04-25 16:02:00,
2013-04-25 12:08:00,79.2,67.7,30.07,NNE,27,0.0,1.0,68,0.00,,,0.00,Wunderground v.1.15,2013-04-25 16:08:00,
2013-04-25 12:14:00,79.0,68.4,30.07,NNE,25,1.0,3.0,70,0.00,,,0.00,Wunderground v.1.15,2013-04-25 16:14:00,
2013-04-25 12:20:00,79.0,68.0,30.07,NNE,21,1.0,1.0,69,0.00,,,0.00,Wunderground v.1.15,2013-04-25 16:20:00,
2013-04-25 12:26:00,79.9,68.4,30.07,NE,35,0.0,1.0,68,0.00,,,0.00,Wunderground v.1.15,2013-04-25 16:26:00,
2013-04-25 12:32:00,79.9,70.5,30.08,SE,145,0.0,1.0,73,0.00,,,0.00,Wunderground v.1.15,2013-04-25 16:32:00,
2013-04-25 12:38:00,79.2,70.2,30.08,SE,145,1.0,1.0,74,0.00,,,0.00,Wunderground v.1.15,2013-04-25 16:38:00,
2013-04-25 12:44:00,79.2,70.2,30.08,SSE,164,0.0,2.0,74,0.00,,,0.00,Wunderground v.1.15,2013-04-25 16:44:00,
2013-04-25 12:50:00,79.0,69.6,30.08,SE,140,1.0,3.0,73,0.00,,,0.00,Wunderground v.1.15,2013-04-25 16:50:00,
2013-04-25 12:56:00,79.8,70.0,30.08,ESE,123,1.0,4.0,72,0.00,,,0.00,Wunderground v.1.15,2013-04-25 16:56:00,
2013-04-25 13:02:00,80.1,69.4,30.07,East,96,2.0,2.0,70,0.00,,,0.00,Wunderground v.1.15,2013-04-25 17:02:00,
2013-04-25 13:08:00,80.3,69.6,30.07,SE,127,2.0,2.0,70,0.00,,,0.00,Wunderground v.1.15,2013-04-25 17:08:00,
2013-04-25 13:14:00,80.7,70.4,30.07,SE,124,2.0,2.0,71,0.00,,,0.00,Wunderground v.1.15,2013-04-25 17:14:00,
2013-04-25 13:20:00,81.1,70.8,30.07,SSE,162,2.0,2.0,71,0.00,,,0.00,Wunderground v.1.15,2013-04-25 17:20:00,
2013-04-25 13:26:00,80.7,70.4,30.07,East,95,2.0,5.0,71,0.00,,,0.00,Wunderground v.1.15,2013-04-25 17:26:00,
2013-04-25 13:32:00,79.8,70.0,30.07,East,88,2.0,3.0,72,0.00,,,0.00,Wunderground v.1.15,2013-04-25 17:32:00,
2013-04-25 13:38:00,79.0,69.6,30.07,SE,136,2.0,3.0,73,0.00,,,0.00,Wunderground v.1.15,2013-04-25 17:38:00,
2013-04-25 13:44:00,78.8,69.4,30.07,SSE,151,2.0,5.0,73,0.00,,,0.00,Wunderground v.1.15,2013-04-25 17:44:00,
2013-04-25 13:50:00,79.2,69.4,30.07,SSE,157,3.0,3.0,72,0.00,,,0.00,Wunderground v.1.15,2013-04-25 17:50:00,
2013-04-25 13:56:00,79.6,69.4,30.07,SSW,198,4.0,4.0,71,0.00,,,0.00,Wunderground v.1.15,2013-04-25 17:56:00,
2013-04-25 14:02:00,79.8,69.1,30.06,SSW,192,3.0,4.0,70,0.00,,,0.00,Wunderground v.1.15,2013-04-25 18:02:00,
2013-04-25 14:08:00,79.6,69.8,30.06,ESE,113,3.0,4.0,72,0.00,,,0.00,Wunderground v.1.15,2013-04-25 18:08:00,
2013-04-25 14:14:00,79.2,69.8,30.06,South,189,3.0,3.0,73,0.00,,,0.00,Wunderground v.1.15,2013-04-25 18:14:00,
2013-04-25 14:20:00,78.3,69.7,30.06,ESE,113,3.0,3.0,75,0.00,,,0.00,Wunderground v.1.15,2013-04-25 18:20:00,
2013-04-25 14:26:00,78.3,68.5,30.06,SSE,151,3.0,3.0,72,0.00,,,0.00,Wunderground v.1.15,2013-04-25 18:26:00,
2013-04-25 14:32:00,79.4,68.3,30.06,SSE,154,3.0,12.0,69,0.00,,,0.00,Wunderground v.1.15,2013-04-25 18:32:00,
2013-04-25 14:38:00,79.9,69.2,30.06,South,185,5.0,12.0,70,0.00,,,0.00,Wunderground v.1.15,2013-04-25 18:38:00,
2013-04-25 14:44:00,79.6,69.4,30.05,SE,131,5.0,5.0,71,0.00,,,0.00,Wunderground v.1.15,2013-04-25 18:44:00,
2013-04-25 14:50:00,79.0,68.8,30.05,ESE,117,5.0,6.0,71,0.00,,,0.00,Wunderground v.1.15,2013-04-25 18:50:00,
2013-04-25 14:56:00,79.0,68.4,30.05,SE,143,5.0,11.0,70,0.00,,,0.00,Wunderground v.1.15,2013-04-25 18:56:00,
2013-04-25 15:02:00,78.8,68.6,30.05,SE,124,5.0,10.0,71,0.00,,,0.00,Wunderground v.1.15,2013-04-25 19:02:00,
2013-04-25 15:08:00,77.7,68.0,30.05,SE,133,5.0,10.0,72,0.00,,,0.00,Wunderground v.1.15,2013-04-25 19:08:00,
2013-04-25 15:14:00,77.2,68.3,30.04,SE,144,4.0,5.0,74,0.00,,,0.00,Wunderground v.1.15,2013-04-25 19:14:00,
2013-04-25 15:20:00,76.1,69.8,30.04,South,178,3.0,3.0,81,0.00,,,0.00,Wunderground v.1.15,2013-04-25 19:20:00,
2013-04-25 15:26:00,75.4,69.9,30.04,South,191,3.0,5.0,83,0.00,,,0.00,Wunderground v.1.15,2013-04-25 19:26:00,
2013-04-25 15:32:00,74.7,69.5,30.03,SSE,161,3.0,4.0,84,0.00,,,0.01,Wunderground v.1.15,2013-04-25 19:32:00,
2013-04-25 15:38:00,74.4,69.6,30.03,South,176,3.0,4.0,85,0.00,,,0.01,Wunderground v.1.15,2013-04-25 19:38:00,
2013-04-25 15:44:00,74.2,69.7,30.03,SSW,196,2.0,3.0,86,0.05,,,0.02,Wunderground v.1.15,2013-04-25 19:44:00,
2013-04-25 15:50:00,73.9,69.4,30.03,SW,219,3.0,3.0,86,0.09,,,0.03,Wunderground v.1.15,2013-04-25 19:50:00,
2013-04-25 15:56:00,73.9,70.5,30.03,SW,232,2.0,4.0,89,0.09,,,0.03,Wunderground v.1.15,2013-04-25 19:56:00,
2013-04-25 16:02:00,74.7,70.9,30.02,SSW,196,2.0,8.0,88,0.05,,,0.03,Wunderground v.1.15,2013-04-25 20:02:00,
2013-04-25 16:08:00,76.1,69.1,30.02,SW,220,3.0,8.0,79,0.00,,,0.03,Wunderground v.1.15,2013-04-25 20:08:00,
2013-04-25 16:14:00,76.1,68.0,30.03,SW,222,3.0,6.0,76,0.00,,,0.03,Wunderground v.1.15,2013-04-25 20:14:00,
2013-04-25 16:20:00,76.5,68.4,30.03,NW,320,3.0,10.0,76,0.00,,,0.03,Wunderground v.1.15,2013-04-25 20:20:00,
2013-04-25 16:26:00,71.1,67.4,30.03,North,354,7.0,17.0,88,0.00,,,0.03,Wunderground v.1.15,2013-04-25 20:26:00,
2013-04-25 16:32:00,69.3,66.9,30.05,NNW,335,16.0,28.0,92,0.00,,,0.03,Wunderground v.1.15,2013-04-25 20:32:00,
2013-04-25 16:38:00,68.4,67.2,30.05,North,0,19.0,28.0,96,0.00,,,0.03,Wunderground v.1.15,2013-04-25 20:38:00,
2013-04-25 16:44:00,68.4,67.2,30.05,North,0,8.0,16.0,96,0.00,,,0.03,Wunderground v.1.15,2013-04-25 20:44:00,
2013-04-25 16:50:00,68.4,67.5,30.05,NNE,28,6.0,8.0,97,0.00,,,0.03,Wunderground v.1.15,2013-04-25 20:50:00,
2013-04-25 16:56:00,68.1,67.2,30.05,NNE,17,5.0,8.0,97,0.00,,,0.04,Wunderground v.1.15,2013-04-25 20:56:00,
2013-04-25 17:02:00,68.1,67.2,30.05,ENE,61,3.0,3.0,97,0.00,,,0.04,Wunderground v.1.15,2013-04-25 21:02:00,
2013-04-25 17:08:00,68.3,67.4,30.05,ESE,103,2.0,3.0,97,0.00,,,0.04,Wunderground v.1.15,2013-04-25 21:08:00,
2013-04-25 17:14:00,68.1,67.5,30.04,East,92,1.0,3.0,98,0.39,,,0.07,Wunderground v.1.15,2013-04-25 21:14:00,
2013-04-25 17:20:00,67.9,67.3,30.04,East,82,1.0,1.0,98,0.09,,,0.07,Wunderground v.1.15,2013-04-25 21:20:00,
2013-04-25 17:26:00,68.1,67.8,30.04,ESE,102,1.0,3.0,99,0.05,,,0.07,Wunderground v.1.15,2013-04-25 21:26:00,
2013-04-25 17:32:00,68.3,68.3,30.05,SSE,152,2.0,2.0,100,0.00,,,0.07,Wunderground v.1.15,2013-04-25 21:32:00,
2013-04-25 17:38:00,68.4,68.4,30.05,SSE,150,1.0,2.0,100,0.00,,,0.07,Wunderground v.1.15,2013-04-25 21:38:00,
2013-04-25 17:44:00,68.4,68.4,30.05,SE,128,1.0,2.0,100,0.00,,,0.07,Wunderground v.1.15,2013-04-25 21:44:00,
2013-04-25 17:50:00,68.1,68.1,30.05,SSE,155,2.0,2.0,100,0.00,,,0.07,Wunderground v.1.15,2013-04-25 21:50:00,
2013-04-25 17:56:00,67.9,67.9,30.05,SSE,157,1.0,2.0,100,0.00,,,0.08,Wunderground v.1.15,2013-04-25 21:56:00,
2013-04-25 18:02:00,67.9,67.9,30.05,SSE,168,1.0,2.0,100,0.00,,,0.08,Wunderground v.1.15,2013-04-25 22:02:00,
2013-04-25 18:08:00,67.9,67.9,30.05,SE,126,2.0,2.0,100,0.00,,,0.08,Wunderground v.1.15,2013-04-25 22:08:00,
2013-04-25 18:14:00,67.8,67.8,30.04,SSE,164,2.0,6.0,100,0.00,,,0.08,Wunderground v.1.15,2013-04-25 22:14:00,
2013-04-25 18:20:00,67.9,67.9,30.04,SSW,203,2.0,2.0,100,0.00,,,0.08,Wunderground v.1.15,2013-04-25 22:20:00,
2013-04-25 18:26:00,67.9,67.9,30.04,South,185,2.0,4.0,100,0.00,,,0.08,Wunderground v.1.15,2013-04-25 22:26:00,
2013-04-25 18:32:00,67.8,67.8,30.05,SSW,198,3.0,5.0,100,0.00,,,0.08,Wunderground v.1.15,2013-04-25 22:32:00,
2013-04-25 18:38:00,67.8,67.8,30.05,South,184,3.0,5.0,100,0.00,,,0.08,Wunderground v.1.15,2013-04-25 22:38:00,
2013-04-25 18:44:00,67.8,67.8,30.05,SSW,210,2.0,3.0,100,0.00,,,0.08,Wunderground v.1.15,2013-04-25 22:44:00,
2013-04-25 18:50:00,67.8,67.8,30.05,SSW,205,2.0,2.0,100,0.00,,,0.08,Wunderground v.1.15,2013-04-25 22:50:00,
2013-04-25 18:56:00,67.9,67.9,30.05,SSW,205,1.0,2.0,100,0.00,,,0.08,Wunderground v.1.15,2013-04-25 22:56:00,
2013-04-25 19:02:00,68.1,68.1,30.05,North,0,2.0,8.0,100,0.00,,,0.08,Wunderground v.1.15,2013-04-25 23:02:00,
2013-04-25 19:08:00,68.1,68.1,30.05,North,1,3.0,8.0,100,0.00,,,0.08,Wunderground v.1.15,2013-04-25 23:08:00,
2013-04-25 19:14:00,67.9,67.9,30.07,North,0,0.0,2.0,100,0.00,,,0.08,Wunderground v.1.15,2013-04-25 23:14:00,
2013-04-25 19:20:00,67.8,67.8,30.07,North,1,1.0,3.0,100,0.00,,,0.08,Wunderground v.1.15,2013-04-25 23:20:00,
2013-04-25 19:26:00,67.8,67.8,30.07,North,10,4.0,4.0,100,0.00,,,0.08,Wunderground v.1.15,2013-04-25 23:26:00,
2013-04-25 19:32:00,67.8,67.5,30.07,NNE,21,3.0,5.0,99,0.00,,,0.08,Wunderground v.1.15,2013-04-25 23:32:00,
2013-04-25 19:38:00,68.1,67.5,30.07,NE,51,3.0,5.0,98,0.00,,,0.08,Wunderground v.1.15,2013-04-25 23:38:00,
2013-04-25 19:44:00,68.3,68.3,30.07,North,3,4.0,7.0,100,0.00,,,0.08,Wunderground v.1.15,2013-04-25 23:44:00,
2013-04-25 19:50:00,68.3,68.3,30.07,NNE,25,4.0,9.0,100,0.00,,,0.08,Wunderground v.1.15,2013-04-25 23:50:00,
2013-04-25 19:56:00,68.1,68.1,30.07,North,7,6.0,9.0,100,0.00,,,0.08,Wunderground v.1.15,2013-04-25 23:56:00,
2013-04-25 20:02:00,68.1,68.1,30.07,NE,45,6.0,7.0,100,0.00,,,0.08,Wunderground v.1.15,2013-04-26 00:02:00,
2013-04-25 20:08:00,67.9,67.9,30.07,ENE,69,3.0,7.0,100,0.00,,,0.08,Wunderground v.1.15,2013-04-26 00:08:00,
2013-04-25 20:14:00,67.8,67.8,30.08,ENE,61,1.0,2.0,100,0.00,,,0.08,Wunderground v.1.15,2013-04-26 00:14:00,
2013-04-25 20:20:00,67.8,67.8,30.08,ENE,68,1.0,1.0,100,0.00,,,0.08,Wunderground v.1.15,2013-04-26 00:20:00,
2013-04-25 20:26:00,67.8,67.8,30.08,ENE,69,0.0,1.0,100,0.00,,,0.08,Wunderground v.1.15,2013-04-26 00:26:00,
2013-04-25 20:32:00,67.8,67.8,30.10,ENE,66,0.0,0.0,100,0.00,,,0.08,Wunderground v.1.15,2013-04-26 00:32:00,
2013-04-25 20:38:00,67.6,67.6,30.10,East,96,1.0,1.0,100,0.00,,,0.08,Wunderground v.1.15,2013-04-26 00:38:00,
2013-04-25 20:44:00,67.4,67.4,30.09,ENE,66,1.0,4.0,100,0.00,,,0.08,Wunderground v.1.15,2013-04-26 00:44:00,
2013-04-25 20:50:00,67.3,67.3,30.09,NE,45,1.0,1.0,100,0.00,,,0.08,Wunderground v.1.15,2013-04-26 00:50:00,
2013-04-25 20:56:00,67.1,67.1,30.09,NE,42,0.0,2.0,100,0.00,,,0.08,Wunderground v.1.15,2013-04-26 00:56:00,
2013-04-25 21:02:00,67.1,67.1,30.10,NE,42,1.0,1.0,100,0.00,,,0.08,Wunderground v.1.15,2013-04-26 01:02:00,
2013-04-25 21:08:00,67.1,67.1,30.10,NE,42,0.0,1.0,100,0.00,,,0.08,Wunderground v.1.15,2013-04-26 01:08:00,
2013-04-25 21:14:00,67.1,67.1,30.11,NE,42,0.0,1.0,100,0.00,,,0.08,Wunderground v.1.15,2013-04-26 01:14:00,
2013-04-25 21:20:00,66.9,66.9,30.11,ENE,75,1.0,1.0,100,0.00,,,0.08,Wunderground v.1.15,2013-04-26 01:20:00,
2013-04-25 21:26:00,66.9,66.9,30.11,ENE,75,0.0,1.0,100,0.00,,,0.08,Wunderground v.1.15,2013-04-26 01:26:00,
2013-04-25 21:32:00,66.8,66.8,30.11,East,86,0.0,0.0,100,0.00,,,0.08,Wunderground v.1.15,2013-04-26 01:32:00,
2013-04-25 21:38:00,66.8,66.8,30.11,ENE,71,1.0,2.0,100,0.00,,,0.08,Wunderground v.1.15,2013-04-26 01:38:00,
2013-04-25 21:44:00,66.6,66.6,30.12,ENE,75,1.0,3.0,100,0.00,,,0.08,Wunderground v.1.15,2013-04-26 01:44:00,
2013-04-25 21:50:00,66.6,66.6,30.12,NE,51,1.0,2.0,100,0.00,,,0.08,Wunderground v.1.15,2013-04-26 01:50:00,
2013-04-25 21:56:00,66.8,66.8,30.12,NE,55,1.0,2.0,100,0.00,,,0.08,Wunderground v.1.15,2013-04-26 01:56:00,
2013-04-25 22:02:00,66.8,66.8,30.13,NNE,17,2.0,3.0,100,0.00,,,0.08,Wunderground v.1.15,2013-04-26 02:02:00,
2013-04-25 22:08:00,66.8,66.8,30.13,ESE,123,2.0,3.0,100,0.00,,,0.08,Wunderground v.1.15,2013-04-26 02:08:00,
2013-04-25 22:14:00,66.6,66.6,30.13,ENE,72,2.0,2.0,100,0.00,,,0.08,Wunderground v.1.15,2013-04-26 02:14:00,
2013-04-25 22:20:00,66.6,66.6,30.13,ENE,64,2.0,6.0,100,0.00,,,0.08,Wunderground v.1.15,2013-04-26 02:20:00,
2013-04-25 22:26:00,66.4,66.4,30.13,ESE,102,2.0,6.0,100,0.00,,,0.08,Wunderground v.1.15,2013-04-26 02:26:00,
2013-04-25 22:32:00,66.3,66.3,30.13,East,79,2.0,3.0,100,0.00,,,0.08,Wunderground v.1.15,2013-04-26 02:32:00,
2013-04-25 22:38:00,66.3,66.3,30.13,ENE,78,2.0,3.0,100,0.00,,,0.08,Wunderground v.1.15,2013-04-26 02:38:00,
2013-04-25 22:44:00,66.3,66.3,30.13,East,95,2.0,2.0,100,0.00,,,0.08,Wunderground v.1.15,2013-04-26 02:44:00,
2013-04-25 22:50:00,66.3,66.3,30.13,ESE,116,2.0,2.0,100,0.00,,,0.08,Wunderground v.1.15,2013-04-26 02:50:00,
2013-04-25 22:56:00,66.1,66.1,30.13,East,83,2.0,3.0,100,0.00,,,0.08,Wunderground v.1.15,2013-04-26 02:56:00,
2013-04-25 23:02:00,66.0,66.0,30.13,ENE,65,2.0,5.0,100,0.00,,,0.00,Wunderground v.1.15,2013-04-26 03:02:00,
2013-04-25 23:08:00,66.0,66.0,30.13,East,99,3.0,6.0,100,0.00,,,0.00,Wunderground v.1.15,2013-04-26 03:08:00,
2013-04-25 23:14:00,65.8,65.8,30.13,NE,51,4.0,5.0,100,0.00,,,0.00,Wunderground v.1.15,2013-04-26 03:14:00,
2013-04-25 23:20:00,66.0,66.0,30.13,ENE,65,4.0,4.0,100,0.00,,,0.00,Wunderground v.1.15,2013-04-26 03:20:00,
2013-04-25 23:26:00,65.8,65.8,30.13,East,90,3.0,5.0,100,0.00,,,0.00,Wunderground v.1.15,2013-04-26 03:26:00,
2013-04-25 23:32:00,65.8,65.8,30.13,NE,49,3.0,5.0,100,0.00,,,0.00,Wunderground v.1.15,2013-04-26 03:32:00,
2013-04-25 23:38:00,65.8,65.8,30.13,NE,49,2.0,5.0,100,0.00,,,0.00,Wunderground v.1.15,2013-04-26 03:38:00,
2013-04-25 23:44:00,65.6,65.6,30.13,ENE,65,2.0,2.0,100,0.00,,,0.00,Wunderground v.1.15,2013-04-26 03:44:00,
2013-04-25 23:50:00,65.2,65.2,30.13,NE,54,2.0,4.0,100,0.00,,,0.00,Wunderground v.1.15,2013-04-26 03:50:00,
2013-04-25 23:56:00,65.0,65.0,30.13,ENE,76,3.0,5.0,100,0.00,,,0.00,Wunderground v.1.15,2013-04-26 03:56:00,